Weather History for KFLO - April, 2014

Change the Weather History Date:

Friday, April 25, 2014

  Actual Average Record
Temperature  
Mean Temperature 71 °F 66 °F  
Max Temperature 86 °F 78 °F 92 °F (1960)
Min Temperature 55 °F 53 °F 39 °F (2005)
Degree Days  
Heating Degree Days 0 3  
Month to date heating degree days 88 113  
Since 1 July heating degree days 2660 2489  
Cooling Degree Days 6 3  
Month to date cooling degree days 46 53  
Year to date cooling degree days 56 77  
Growing Degree Days 20 (Base 50)    
Moisture  
Dew Point 58 °F    
Average Humidity 65    
Maximum Humidity 93    
Minimum Humidity 37    
Precipitation  
Precipitation 0.00 in 0.09 in 0.79 in (1978)
Month to date precipitation 3.82 2.19  
Year to date precipitation 14.09 11.67  
Sea Level Pressure  
Sea Level Pressure 29.85 in    
Wind  
Wind Speed 9 mph (SW)    
Max Wind Speed 26 mph    
Max Gust Speed 33 mph    
Visibility 10 miles    
Events      
T = Trace of Precipitation, MM = Missing Value Source: NWS Daily Summary

Daily Weather History Graph

Daily Weather History Graph

Search for Another Location

Airport or City:

Trip Planner

Search our weather history database for the weather conditions in past years. The results will help you decide how hot, cold, wet, or windy it might be!

Date:

Astronomy

Apr. 25, 2014 Rise Set
Actual Time 6:35 AM EDT 7:58 PM EDT
Civil Twilight 6:09 AM EDT 8:24 PM EDT
Nautical Twilight 5:38 AM EDT 8:56 PM EDT
Astronomical Twilight 5:05 AM EDT 9:29 PM EDT
Moon 4:12 AM EDT (4/25) 4:28 PM EDT (4/25)
Length of Visible Light 14h 15m
Length of Day
13h 22m
Waning Crescent, 15% of the Moon is Illuminated
Apr 25
Waning Crescent
Apr 29
New
May 6
First Quarter
May 14
Full
May 21
Last Quarter

Hourly Weather History & Observations

Time (EDT) Temp. Heat Index Dew Point Humidity Pressure Visibility Wind Dir Wind Speed Gust Speed Precip Events Conditions
12:53 AM 55.9 °F - 52.0 °F 87% 29.98 in 10.0 mi Calm Calm - N/A   Clear
1:53 AM 55.9 °F - 53.1 °F 90% 29.96 in 10.0 mi East 3.5 mph - N/A   Clear
2:53 AM 55.0 °F - 52.0 °F 89% 29.95 in 10.0 mi Calm Calm - N/A   Clear
3:53 AM 55.0 °F - 52.0 °F 89% 29.95 in 10.0 mi East 4.6 mph - N/A   Partly Cloudy
4:53 AM 55.9 °F - 54.0 °F 93% 29.94 in 10.0 mi Calm Calm - N/A   Mostly Cloudy
5:53 AM 57.0 °F - 54.0 °F 89% 29.94 in 10.0 mi Calm Calm - N/A   Mostly Cloudy
6:53 AM 55.0 °F - 53.1 °F 93% 29.93 in 6.0 mi East 3.5 mph - N/A   Partly Cloudy
7:53 AM 60.1 °F - 57.0 °F 90% 29.92 in 7.0 mi SE 5.8 mph - N/A   Clear
8:53 AM 69.1 °F - 62.1 °F 78% 29.91 in 10.0 mi South 9.2 mph - N/A   Clear
9:53 AM 75.0 °F - 64.0 °F 69% 29.90 in 10.0 mi South 11.5 mph - N/A   Clear
10:53 AM 79.0 °F - 64.9 °F 62% 29.88 in 10.0 mi South 11.5 mph - N/A   Partly Cloudy
11:53 AM 81.0 °F 82.7 °F 64.9 °F 58% 29.86 in 10.0 mi SSW 16.1 mph - N/A   Mostly Cloudy
12:53 PM 81.0 °F 82.5 °F 64.0 °F 56% 29.83 in 10.0 mi SW 12.7 mph 21.9 mph N/A   Scattered Clouds
1:53 PM 84.9 °F 84.2 °F 57.9 °F 40% 29.79 in 10.0 mi WSW 17.3 mph 32.2 mph N/A   Partly Cloudy
2:53 PM 86.0 °F 84.9 °F 57.0 °F 37% 29.76 in 10.0 mi SW 19.6 mph 27.6 mph N/A   Partly Cloudy
3:53 PM 82.9 °F 82.0 °F 55.0 °F 38% 29.73 in 10.0 mi SW 17.3 mph 31.1 mph N/A   Scattered Clouds
4:53 PM 82.9 °F 82.4 °F 57.0 °F 41% 29.73 in 10.0 mi SW 17.3 mph - N/A   Mostly Cloudy
5:53 PM 82.9 °F 82.8 °F 59.0 °F 44% 29.73 in 10.0 mi West 17.3 mph 25.3 mph N/A   Mostly Cloudy
6:53 PM 80.1 °F 80.7 °F 59.0 °F 48% 29.74 in 10.0 mi WSW 17.3 mph 23.0 mph N/A   Partly Cloudy
7:53 PM 75.9 °F - 60.1 °F 58% 29.75 in 10.0 mi WSW 9.2 mph - N/A   Clear
8:53 PM 73.9 °F - 60.1 °F 62% 29.77 in 8.0 mi SW 6.9 mph - N/A   Clear
9:53 PM 71.1 °F - 61.0 °F 70% 29.80 in 10.0 mi WSW 6.9 mph - N/A   Scattered Clouds
10:53 PM 71.1 °F - 61.0 °F 70% 29.84 in 10.0 mi North 4.6 mph - N/A   Scattered Clouds
11:53 PM 70.0 °F - 57.9 °F 65% 29.86 in 10.0 mi NNW 4.6 mph - N/A   Mostly Cloudy